Weather History for Carbondale, IL

Change the Weather History Date:

Thursday, December 8, 2011

  Actual Average Record
Temperature  
Mean Temperature 35 °F -  
Max Temperature 44 °F 46 °F 71 °F (1918)
Min Temperature 26 °F 29 °F 3 °F (1917)
Degree Days  
Heating Degree Days 30    
Moisture  
Dew Point 26 °F    
Average Humidity 73    
Maximum Humidity 92    
Minimum Humidity 47    
Precipitation  
Precipitation 0.00 in - - ()
Sea Level Pressure  
Sea Level Pressure 30.27 in    
Wind  
Wind Speed 4 mph (SSW)    
Max Wind Speed 14 mph    
Max Gust Speed -    
Visibility 10 miles    
Events      
Averages and records for this station are not official NWS values.
T = Trace of Precipitation, MM = Missing Value Source: NWS Daily Summary

Daily Weather History Graph

Daily Weather History Graph

Search for Another Location

Airport:

Trip Planner

Search our weather history database for the weather conditions in past years. The results will help you decide how hot, cold, wet, or windy it might be!

Date:

Astronomy

Dec. 08, 2011 Rise Set
Actual Time 6:59 AM CST 4:37 PM CST
Civil Twilight 6:30 AM CST 5:07 PM CST
Nautical Twilight 5:57 AM CST 5:39 PM CST
Astronomical Twilight 5:25 AM CST 6:11 PM CST
Moon 3:16 PM CST (12/8) 5:12 AM CST (12/8)
Length of Visible Light 10h 36m
Length of Day
9h 38m
Waxing Gibbous, 97% of the Moon is Illuminated
Dec 8
Waxing Gibbous
Dec 10
Full
Dec 17
Last Quarter
Dec 24
New
Jan 1
First Quarter

Hourly Weather History & Observations

Time (CST) Temp. Windchill Dew Point Humidity Pressure Visibility Wind Dir Wind Speed Gust Speed Precip Events Conditions
12:52 AM 28.9 °F - 26.1 °F 89% 30.27 in 10.0 mi Calm Calm - N/A   Clear
1:52 AM 27.0 °F 23.0 °F 25.0 °F 92% 30.27 in 10.0 mi South 3.5 mph - N/A   Clear
2:52 AM 26.1 °F 19.4 °F 24.1 °F 92% 30.27 in 10.0 mi SSW 5.8 mph - N/A   Clear
3:52 AM 28.0 °F 24.2 °F 21.9 °F 78% 30.26 in 10.0 mi SSW 3.5 mph - N/A   Clear
4:52 AM 27.0 °F 21.6 °F 23.0 °F 85% 30.27 in 10.0 mi SSW 4.6 mph - N/A   Clear
5:52 AM 28.0 °F 24.2 °F 21.9 °F 78% 30.28 in 10.0 mi South 3.5 mph - N/A   Clear
6:52 AM 26.1 °F 21.9 °F 21.9 °F 84% 30.30 in 10.0 mi South 3.5 mph - N/A   Clear
7:52 AM 28.0 °F 24.2 °F 25.0 °F 88% 30.31 in 10.0 mi South 3.5 mph - N/A   Clear
8:52 AM 33.1 °F 28.7 °F 26.1 °F 75% 30.32 in 10.0 mi South 4.6 mph - N/A   Clear
9:52 AM 37.0 °F 31.0 °F 25.0 °F 62% 30.34 in 10.0 mi SSW 8.1 mph - N/A   Clear
10:52 AM 39.9 °F 34.5 °F 25.0 °F 55% 30.32 in 10.0 mi SSW 8.1 mph - N/A   Clear
11:52 AM 42.1 °F 37.1 °F 25.0 °F 51% 30.30 in 10.0 mi SW 8.1 mph - N/A   Clear
12:52 PM 43.0 °F 36.0 °F 24.1 °F 47% 30.27 in 10.0 mi SW 13.8 mph - N/A   Clear
1:52 PM 44.1 °F 38.6 °F 27.0 °F 51% 30.25 in 10.0 mi SSW 10.4 mph - N/A   Clear
2:52 PM 43.0 °F 37.2 °F 27.0 °F 53% 30.23 in 10.0 mi South 10.4 mph - N/A   Clear
3:52 PM 41.0 °F 34.3 °F 28.0 °F 60% 30.24 in 10.0 mi SSW 11.5 mph - N/A   Clear
4:52 PM 39.0 °F 34.0 °F 26.1 °F 60% 30.24 in 10.0 mi SSW 6.9 mph - N/A   Clear
5:52 PM 37.0 °F 32.4 °F 28.0 °F 70% 30.23 in 10.0 mi South 5.8 mph - N/A   Clear
6:52 PM 35.1 °F 32.2 °F 28.0 °F 76% 30.25 in 10.0 mi SSW 3.5 mph - N/A   Clear
7:52 PM 35.1 °F - 28.0 °F 76% 30.24 in 10.0 mi Calm Calm - N/A   Clear
8:52 PM 32.0 °F 27.5 °F 27.0 °F 82% 30.23 in 10.0 mi South 4.6 mph - N/A   Clear
9:52 PM 33.1 °F - 28.0 °F 82% 30.24 in 10.0 mi Calm Calm - N/A   Clear
10:52 PM 32.0 °F - 27.0 °F 82% 30.24 in 10.0 mi Calm Calm - N/A   Clear
11:52 PM 32.0 °F 28.7 °F 27.0 °F 82% 30.24 in 10.0 mi SSW 3.5 mph - N/A   Clear